Simultaneous Nadir Overpasses (SNOs) Predictions

Prediction of SNOs between GOES-16 and NOAA-20 Satellite Orbit:

Table of predicted SNOs for the next 14.0 days since TLE Epoch: 4/2/2022
Index Date Time (GOES-16) GOES-16 Lat,Lon NOAA-20 Lat,Lon Distance(km) Time Diff (sec)
1 04/02/2022 06:39:00 -0.05, -75.21 0.57, -77.99 317.13 80
2 04/03/2022 06:17:37 -0.06, -75.21 -0.47, -73.47 199.34 80
3 04/04/2022 18:42:14 0.05, -75.22 -0.72, -78.77 403.99 80
4 04/05/2022 18:23:29 0.05, -75.23 0.26, -74.23 112.89 80
5 04/07/2022 06:45:19 -0.05, -75.23 0.89, -79.51 486.87 80
6 04/08/2022 06:23:54 -0.05, -75.24 -0.09, -74.97 30.15 80
7 04/10/2022 18:29:47 0.04, -75.26 -0.10, -75.74 55.18 80
8 04/11/2022 18:11:04 0.04, -75.28 0.95, -71.22 462.55 80
9 04/13/2022 06:32:52 -0.03, -75.29 0.26, -76.48 135.86 80
10 04/14/2022 06:11:28 -0.03, -75.31 -0.79, -71.96 382.03 80
11 04/15/2022 18:36:06 0.03, -75.33 -0.38, -77.26 219.43 80
